Content
SEND FEEDBACK

Daily
Averages
Monthly
Summary
United States of America

ADAK ISLAND, ALASKA


Home > North America > United States > Alaska
Elevation: 13 feet     Latitude: 51 53N     Longitude: 176 39W

WEATHER
 
SELECT A DAY
Number of Records: 254,478;   Date Range: 1/1/95 - 7/23/14
 
SHARE

PRINT THIS DATA

[ ← Previous Day ]
WEATHER ALMANAC - FEBRUARY 5, 2013
[ Next Day → ]
[ °C ]   °F
Weather ElementAverageHighLow
Temperature33.5 °F37.4 °F (10:56 pm) (11:36 pm)
Dewpoint28.9 °F33.8 °F (10:36 pm) (7:00 pm)
Humidity83.3 %100 % (4:56 am)70 % (1:16 pm)
Barometer29.03 in29.71 in (3:56 am) (7:00 pm)
Wind Speed20.7 mph39.1 mph (8:36 pm)
Wind Gust52.9 mph (7:56 pm)
Weather ElementAverage
Visibility7.6 mi
Wind DirectionESE (101.8 °)

Weather ElementTotal
Precipitation1.58 in
Heating Degree Days46.3 (Base 65)
Averaged from 71 records on February 5, 2013
WEATHER CONDITIONS BREAKOUT
WIND DIRECTION BREAKOUT
WEATHER BY HOUR - FEBRUARY 5, 2013
[ °C ]   °F
Local TimeTemperatureDewpointHumidityBarometerVisibilityWind DirectionWind SpeedGust SpeedPrecipitationEventsConditions
12:36 AM30.2 °F28.4 °F93 %29.67 in5.0 miNNE (30°)10.4 mph0.02 inOvercast
12:56 AM32.0 °F28.4 °F87 %29.67 in10.0 miNE (40°)13.8 mph0.02 inOvercast
1:16 AM30.2 °F28.4 °F93 %29.68 in10.0 miNE (40°)13.8 mphOvercast
1:36 AM30.2 °F28.4 °F93 %29.69 in10.0 miNE (50°)13.8 mphOvercast
1:56 AM32.0 °F26.6 °F80 %29.69 in10.0 miNE (40°)12.7 mphOvercast
2:16 AM32.0 °F26.6 °F80 %29.70 in10.0 miNE (40°)10.4 mphOvercast
2:36 AM32.0 °F26.6 °F80 %29.70 in10.0 miENE (70°)11.5 mphOvercast
2:56 AM32.0 °F28.4 °F87 %29.70 in6.0 miEast (100°)12.7 mphOvercast
3:16 AM30.2 °F28.4 °F93 %29.70 in1.8 miENE (60°)8.1 mphOvercast
3:36 AM30.2 °F28.4 °F93 %29.70 in7.0 miNNE (20°)8.1 mphOvercast
3:56 AM30.2 °F28.4 °F93 %29.71 in5.0 miNorth (10°)6.9 mphOvercast
4:16 AM30.2 °F28.4 °F93 %29.70 in10.0 miNNE (20°)4.6 mphMostly Cloudy
4:36 AM30.2 °F28.4 °F93 %29.70 in10.0 miNorth (350°)4.6 mph0.02 inOvercast
4:56 AM28.4 °F28.4 °F100 %29.70 in10.0 miNorth (10°)5.8 mph0.02 inOvercast
5:16 AM30.2 °F28.4 °F93 %29.69 in10.0 miSE (140°)3.5 mphOvercast
5:36 AM32.0 °F28.4 °F87 %29.69 in10.0 miEast (100°)9.2 mphOvercast
5:56 AM32.0 °F28.4 °F87 %29.69 in10.0 miSE (140°)8.1 mphOvercast
6:16 AM32.0 °F26.6 °F80 %29.69 in10.0 miSE (140°)9.2 mphOvercast
6:36 AM30.2 °F26.6 °F86 %29.69 in10.0 miCalm0.01 inOvercast
6:56 AM32.0 °F26.6 °F80 %29.68 in10.0 miESE (120°)9.2 mph0.02 inOvercast
7:16 AM33.8 °F28.4 °F81 %29.67 in10.0 miESE (110°)13.8 mphOvercast
7:36 AM33.8 °F28.4 °F81 %29.67 in10.0 miEast (100°)13.8 mphOvercast
7:56 AM33.8 °F28.4 °F81 %29.66 in10.0 miEast (100°)11.5 mphOvercast
8:16 AM33.8 °F26.6 °F75 %29.65 in10.0 miEast (100°)15.0 mphOvercast
8:36 AM33.8 °F28.4 °F81 %29.63 in10.0 miEast (80°)17.3 mphOvercast
8:56 AM33.8 °F28.4 °F81 %29.64 in10.0 miESE (110°)16.1 mph20.7 mphOvercast
9:16 AM33.8 °F28.4 °F81 %29.64 in10.0 miESE (120°)11.5 mphOvercast
9:36 AM33.8 °F28.4 °F81 %29.64 in10.0 miESE (120°)11.5 mphOvercast
9:56 AM33.8 °F30.2 °F87 %29.64 in7.0 miESE (110°)11.5 mphOvercast
10:16 AM33.8 °F30.2 °F87 %29.62 in9.0 miESE (110°)10.4 mphOvercast
10:36 AM33.8 °F30.2 °F87 %29.62 in10.0 miSE (130°)17.3 mphMostly Cloudy
10:56 AM33.8 °F30.2 °F87 %29.62 in10.0 miSSE (150°)10.4 mphOvercast
11:16 AM35.6 °F28.4 °F75 %29.61 in10.0 miSSE (150°)18.4 mph24.2 mphOvercast
11:36 AM35.6 °F28.4 °F75 %29.61 in10.0 miESE (120°)13.8 mph21.9 mphOvercast
11:56 AM35.6 °F28.4 °F75 %29.59 in10.0 miESE (120°)18.4 mphOvercast
12:16 PM35.6 °F30.2 °F81 %29.58 in10.0 miESE (120°)11.5 mphOvercast
12:36 PM35.6 °F28.4 °F75 %29.55 in10.0 miESE (120°)17.3 mphOvercast
12:56 PM35.6 °F28.4 °F75 %29.54 in10.0 miSE (130°)18.4 mph24.2 mphOvercast
1:16 PM35.6 °F26.6 °F70 %29.53 in10.0 miESE (120°)19.6 mphOvercast
1:36 PM35.6 °F26.6 °F70 %29.51 in10.0 miESE (120°)23.0 mph33.4 mphOvercast
1:56 PM35.6 °F26.6 °F70 %29.49 in10.0 miESE (110°)20.7 mph26.5 mphOvercast
2:16 PM35.6 °F28.4 °F75 %29.47 in10.0 miEast (100°)15.0 mph20.7 mphOvercast
2:36 PM35.6 °F30.2 °F81 %29.45 in10.0 miESE (110°)19.6 mph28.8 mphOvercast
2:56 PM35.6 °F28.4 °F75 %29.43 in10.0 miESE (120°)23.0 mph34.5 mphOvercast
3:16 PM35.6 °F28.4 °F75 %29.42 in10.0 miESE (120°)26.5 mph31.1 mphOvercast
3:36 PM35.6 °F28.4 °F75 %29.41 in10.0 miSE (130°)27.6 mph35.7 mphOvercast
3:56 PM35.6 °F28.4 °F75 %29.37 in10.0 miESE (110°)28.8 mph38.0 mphOvercast
4:16 PM35.6 °F28.4 °F75 %29.37 in10.0 miESE (110°)34.5 mph43.7 mphOvercast
4:36 PM35.6 °F30.2 °F81 %29.35 in10.0 miESE (110°)34.5 mph42.6 mphOvercast
4:56 PM35.6 °F28.4 °F75 %29.31 in10.0 miESE (110°)33.4 mph41.4 mphOvercast
5:16 PM35.6 °F30.2 °F81 %29.30 in5.0 miESE (110°)36.8 mph44.9 mphOvercast
5:36 PM35.6 °F30.2 °F81 %29.28 in5.0 miESE (110°)34.5 mph47.2 mphOvercast
5:56 PM35.6 °F30.2 °F81 %29.26 in2.5 miESE (110°)38.0 mph47.2 mphOvercast
6:16 PM35.6 °F30.2 °F81 %29.23 in2.5 miEast (100°)38.0 mph47.2 mphOvercast
6:36 PM35.6 °F30.2 °F81 %29.21 in1.8 miEast (100°)33.4 mph48.3 mphOvercast
6:56 PM33.8 °F30.2 °F87 %29.18 in2.0 miEast (100°)34.5 mph42.6 mph0.01 inOvercast
7:16 PM33.8 °F32.0 °F93 %29.14 in3.0 miEast (100°)31.1 mph41.4 mphOvercast
7:36 PM35.6 °F32.0 °F87 %29.13 in3.0 miEast (100°)32.2 mph40.3 mph0.02 inOvercast
7:56 PM35.6 °F32.0 °F87 %29.10 in2.5 miESE (110°)35.7 mph52.9 mph0.04 inOvercast
8:16 PM35.6 °F32.0 °F87 %29.07 in3.0 miESE (110°)33.4 mph51.8 mph0.02 inOvercast
8:36 PM35.6 °F32.0 °F87 %29.05 in2.5 miESE (120°)39.1 mph47.2 mph0.04 inOvercast
8:56 PM35.6 °F32.0 °F87 %29.01 in2.5 miESE (110°)36.8 mph49.5 mph0.07 inOvercast
9:16 PM35.6 °F32.0 °F87 %28.98 in3.0 miESE (120°)38.0 mph48.3 mph0.02 inOvercast
9:36 PM35.6 °F32.0 °F87 %28.96 in3.0 miESE (110°)39.1 mph46.0 mph0.03 inOvercast
9:56 PM35.6 °F32.0 °F87 %28.94 in3.0 miESE (110°)36.8 mph46.0 mph0.04 inOvercast
10:16 PM35.6 °F32.0 °F87 %28.92 in2.5 miESE (120°)33.4 mph48.3 mph0.16 inOvercast
10:36 PM35.6 °F33.8 °F93 %28.89 in2.5 miSE (130°)34.5 mph44.9 mph0.31 inOvercast
10:56 PM37.4 °F33.8 °F87 %28.87 in4.0 miESE (120°)39.1 mph46.0 mph0.46 inOvercast
11:16 PM37.4 °F33.8 °F87 %28.85 in5.0 miSE (130°)33.4 mph48.3 mph0.16 inOvercast
11:36 PM0.0 °F0.0 °FNorth
11:56 PM37.4 °F32.0 °F81 %28.81 in5.0 miESE (120°)31.1 mph35.7 mph0.09 inOvercast
Hourly data recorded from PADK, located miles away from Adak Island, Alaska







STORIES FROM OUR PARTNERS